Погода в Мингрельской

Россия / Краснодарский край     45˚00′52″N   38˚20′23″E
темп.,
°C
ветер,
м/с
пор.,
м/с
влажн.,
%
обл.,
%
осадки,
мм/ч
давл.,
гПа
погр.,
м
17 января, вс
вс1700:00−2˚всв5989100 0.1 1013428
03:00−2˚всв61294100 1.0 1010619
06:00−3˚всв81495100 0.9 1006652
09:00−3˚св81396100 6.2 1003724
12:00−3˚св81396100 11.9 1003639
15:00−1˚св71294100 14.4 1001613
18:00св71196100 0.3 1002372
21:00ссв5899100 1.6 1003270
18 января, пн
пн1800:00−5˚сз71295100 2.6 1006505
03:00−6˚зсз4795100 3.5 1009294
06:00−9˚з2395100 0.0 101226
09:00−7˚ю2296100 0.1 101562
12:00−3˚зсз1290100 0.0 1016281
15:00−3˚св1189100 0.0 1016301
18:00−6˚зюз0193100 0.0 101821
21:00−7˚юз2293100 0.0 101821
19 января, вт
вт1900:00−8˚зюз2290100 0.0 101921
03:00−9˚з238577 0.0 101929
06:00−7˚ююз2394100 0.3 101841
09:00−8˚юз3487100 0.3 101966
12:00−4˚з4784100 0.0 1020518
15:00−3˚з3586100 0.1 1019780
18:00−8˚з338992 0.0 102033
21:00−9˚з239488 0.1 102328
20 января, ср
ср2000:00−11˚зюз239062 0.0 102321
03:00−11˚юз238977 0.0 102521
06:00−11˚юз1286100 0.0 102621
09:00−11˚юз228594 0.0 102721
12:00−5˚зюз238660 0.0 1028242
15:00−4˚з138537 0.0 1028493
18:00−9˚ююз11854 0.0 102921
21:00−10˚ю12862 0.0 103021
21 января, чт
чт2100:00−11˚ююв22820 0.0 103021
03:00−10˚вюв22790 0.0 103121
06:00−9˚вюв33820 0.0 103027
09:00−5˚в338848 0.0 103163
12:00вюв349899 0.2 1031127
15:00+2˚ююв37100100 0.2 1030170
18:00+1˚ю348567 0.0 103041
21:00ююв228333 0.0 103123